Find Starlink 35080

NORAD ID: 65437 Int'l Des: 2025-194 Owner: SPXS Country: US Constellation: starlink operational
LEOCIRCULARRETROGRADESSO

当前视图

正在加载3D地球...

About Starlink 35080

Starlink 35080 (NORAD 65437) is a starlink constellation satellite (v2 mini) launched Sep 3, 2025 by SPXS of US. It operates in LEO, CIRCULAR, RETROGRADE, SSO orbit with a mass of 575.00 kg.

即将过境

Passes for default location (London). Set your location on the main map for personalized predictions.

高度历史

Loading altitude history...

两行轨道根数

1 65437U 25194D 26263.16629632 .00043957 00000-0 13560-2 0 9995
2 65437 97.2842 112.7688 0001449 164.9917 195.1369 15.33445285 59016
Epoch: Sep 20, 2026 • Age: 20 hours

当前状态

高度 468.8 km
远地点 / 近地点 N/A
速度 7.63 km/s
星下点 -7.63°S, 61.26°W
发射日期 Sep 3, 2025
运行时间 1 year
类型 internet

技术详情

分类 Payload
质量 575.00 kg
干质量 530.00 kg
长度 0.30 m
跨度 29.00 m
形状 ? Box + pan
制造商 SPXS
平台类型 Starlink V2MO
阶段状态 In Orbit
所有者/国家 SPXS/US

Most Searched